Regional Weather Roundup
Issued by NWS

Home | Current Version | Previous Version | Text Only | Print | Product List | Glossary Off
Versions: 1 2 3 4 5 6 7 8 9 10 11 12 13 14 15 16 17 18 19 20 21 22 23 24 25 26 27 28 29 30 31 32 33 34 35 36 37 38 39 40 41 42 43 44 45 46 47 48 49 50

873
ASUS45 KPSR 272210
RWRAZ

ARIZONA HOURLY REGIONAL WEATHER ROUNDUP
NATIONAL WEATHER SERVICE PHOENIX AZ
300 PM MST SAT MAY 27 2017

NOTE: FAIR INDICATES FEW OR NO CLOUDS BELOW 12,000 FEET WITH NO
SIGNIFICANT WEATHER AND/OR OBSTRUCTIONS TO VISIBILITY.

AZZ001>003-036-272300-
NORTHWEST ARIZONA

CITY           SKY/WX    TMP DP  RH WIND       PRES   REMARKS
BULLHEAD CITY  SUNNY     97  34  11 W8G14     29.86F
KINGMAN        SUNNY     85  32  15 VRB3G20   30.02F
$$

AZZ004>008-015-016-018-272300-
NORTH CENTRAL ARIZONA

CITY           SKY/WX    TMP DP  RH WIND       PRES   REMARKS
GRAND CANYON   MOSUNNY   71  21  15 NW8       30.18F
WILLIAMS       SUNNY     70  23  17 CALM      30.20S
PRESCOTT       MOSUNNY   80  21  11 VRB6      30.10F
FLAGSTAFF      MOSUNNY   71  19  14 MISG      30.19S
PAYSON         SUNNY     79  21  11 W8G18     30.14F
PAGE           MOSUNNY   80  28  15 MISG      30.03F
$$

AZZ009>014-017-272300-
NORTHEAST ARIZONA

CITY           SKY/WX    TMP DP  RH WIND       PRES   REMARKS
WINSLOW        SUNNY     81  19  10 VRB5      30.05F
SAINT JOHNS    SUNNY     80  17   9 N12G22    30.08F
WINDOW ROCK    MOSUNNY   73  19  13 VRB3      30.14F
SHOW LOW       SUNNY     73  18  12 SW13      30.17S
$$

AZZ540-542>544-546-548-272300-
GREATER PHOENIX AREA

CITY           SKY/WX    TMP DP  RH WIND       PRES   REMARKS
PHOENIX        MOSUNNY   96  28   9 W9        29.87F
BUCKEYE        SUNNY     91  32  12 SE7       29.89F
GLENDALE       MOSUNNY   95  30  10 S7        29.90F
LUKE AFB       SUNNY     93  33  12 NW5       29.88F
DEER VALLEY    SUNNY     93  27   9 NW10      29.90F
SCOTTSDALE     SUNNY     93  26   9 VRB6      29.91F
MESA-FALCON    SUNNY     93  28  10 SW8       29.90F
MESA-GATEWAY   SUNNY     91  27   9 NW7       29.91F
CHANDLER       SUNNY     93  23   8 VRB5      29.89F
$$

AZZ539-553-272300-
SOUTHWEST MARICOPA COUNTY AND PINAL COUNTY

CITY           SKY/WX    TMP DP  RH WIND       PRES   REMARKS
CASA GRANDE    SUNNY     93  29  10 W7        29.91F
GILA BEND      FAIR      95  29   9 NW7       29.87F
$$

AZZ503-504-507>509-272300-
SOUTHEAST ARIZONA

CITY           SKY/WX    TMP DP  RH WIND       PRES   REMARKS
TUCSON         SUNNY     93  12   5 VRB6G18   29.96F
DAVIS-MONTHAN  SUNNY     92  16   6 NW8       29.95F
RYAN FIELD     SUNNY     93  10   4 NW10G22   29.94F
NOGALES        SUNNY     89  12   5 MISG      30.03F
SIERRA VISTA   SUNNY     88   9   5 W16G22    30.08F
DOUGLAS        SUNNY     90  16   6 SW21G28   30.02F
SAFFORD        SUNNY     93  13   5 NW17      29.94F
$$

AZZ532-272300-
SOUTHWEST ARIZONA

CITY           SKY/WX    TMP DP  RH WIND       PRES   REMARKS
YUMA           SUNNY     93  41  16 S7        29.87F
$$

CAZ041-043-047-048-061-525>527-560>570-272300-
SOUTHERN CALIFORNIA

CITY           SKY/WX    TMP DP  RH WIND       PRES   REMARKS
DOWNTOWN L.A.  SUNNY     70  52  52 VRB3      30.04S
L.A. AIRPORT   MOSUNNY   67  53  61 W17       30.05F
SAN DIEGO      MOSUNNY   68  52  56 NW16      30.06F
BURBANK        SUNNY     70  49  47 SW9       30.02F
ONTARIO        SUNNY     77  46  33 VRB6      30.01F
RIVERSIDE      SUNNY     79  50  36 W7        30.00F
PALM SPRINGS   SUNNY     95  35  12 VRB6      29.89F
EL CENTRO NAS  SUNNY     92  37  14 VRB6      29.88F
IMPERIAL       SUNNY     93  43  17 NW6       29.86F
BLYTHE         SUNNY     93  34  12 SE7       29.88F
NEEDLES        SUNNY     98  31   9 VRB3      29.87F
$$

NVZ020-UTZ003-272300-
SOUTHERN NEVADA-UTAH

CITY           SKY/WX    TMP DP  RH WIND       PRES   REMARKS
LAS VEGAS      MOSUNNY   90  23   9 SE9       29.94F
SALT LAKE CITY MOSUNNY   69  36  29 W7G21     30.21F
$$

NMZ009-TXZ055-272300-
NEW MEXICO-WEST TEXAS

CITY           SKY/WX    TMP DP  RH WIND       PRES   REMARKS
ALBUQUERQUE    MOSUNNY   81  10   7 W9G29     30.02F
EL PASO        MOSUNNY   92  24   8 W25G32    29.97F
$$


........................KEY........................
SKY/WX - SKY CONDITION/WEATHER
TMP    - TEMPERATURE IN FAHRENHEIT
DP     - DEW POINT IN FAHRENHEIT
RH     - RELATIVE HUMIDITY IN PERCENT
WIND   - DIRECTION AND SPEED IN MILES PER HOUR (MPH)
VRB    - VARIABLE WIND DIRECTION
PRES   - MEAN SEA LEVEL PRESSURE IN INCHES OF MERCURY
         F - FALLING PRESSURE   R - RISING PRESSURE
         S - STEADY PRESSURE
VSB    - VISIBILITY IN MILES
HX     - HEAT INDEX IN FAHRENHEIT
WCI    - WIND CHILL INDEX IN FAHRENHEIT
TC     - TEMPERATURE IN CELSIUS WHICH IS ALSO KNOWN AS
         TEMPERATURE IN CENTIGRADE
AFB    - AIR FORCE BASE
         LUKE AFB IS LUKE AIR FORCE BASE
         DAVIS-MONTHAN IS DAVIS-MONTHAN AIR FORCE BASE
NAS    - NAVAL AIR STATION
         EL CENTRO NAS IS EL CENTRO NAVAL AIR STATION
N/A    - NOT AVAILABLE





USA.gov is the U.S. government's official web portal to all federal, state and local government web resources and services.